When you browse on this site, cookies collect data to enhance your experience and personalize the content and advertising you see.
Visit our Privacy Policy to learn more. By continuing to use the site, you agree to this use of cookies and data.
  • In United Kingdom
  • List of Countries
  • For 7 days
  • Water Temperature
  • Satellite Maps
  • Weather Map
  • Weather Widgets
  • user-avatar
    Login

    Hourly Weather Nuwejba

    Today, 23 May, Thursday

    Time Temperature Precipitation Wind Pressure Humidity
    00:00 +29°C° 0 mm 2 mps 694 mmHg 13%
    01:00 +29°C° 0 mm 2 mps 693 mmHg 14%
    02:00 +28°C° 0 mm 1 mps 693 mmHg 15%
    03:00 +27°C° 0 mm 1 mps 693 mmHg 16%
    04:00 +27°C° 0 mm 1 mps 693 mmHg 16%
    05:00 +27°C° 0 mm 1 mps 693 mmHg 17%
    06:00 +29°C° 0 mm 1 mps 693 mmHg 15%
    07:00 +31°C° 0 mm 2 mps 694 mmHg 14%
    08:00 +34°C° 0 mm 2 mps 694 mmHg 12%
    09:00 +35°C° 0 mm 3 mps 694 mmHg 11%
    10:00 +36°C° 0 mm 3 mps 694 mmHg 10%
    11:00 +38°C° 0 mm 3 mps 694 mmHg 9%
    12:00 +38°C° 0 mm 3 mps 694 mmHg 9%
    13:00 +39°C° 0 mm 3 mps 694 mmHg 8%
    14:00 +40°C° 0 mm 3 mps 693 mmHg 8%
    15:00 +39°C° 0 mm 3 mps 693 mmHg 8%
    16:00 +39°C° 0 mm 2 mps 693 mmHg 8%
    17:00 +38°C° 0 mm 2 mps 692 mmHg 8%
    18:00 +36°C° 0 mm 1 mps 692 mmHg 9%
    19:00 +34°C° 0 mm 1 mps 692 mmHg 10%
    20:00 +33°C° 0 mm 1 mps 691 mmHg 12%
    21:00 +32°C° 0 mm 1 mps 691 mmHg 12%
    22:00 +29°C° 0 mm 0 mps 692 mmHg 13%
    23:00 +28°C° 0 mm 0 mps 692 mmHg 14%

    Tomorrow, 24 May, Friday

    Time Temperature Precipitation Wind Pressure Humidity
    00:00 +28°C° 0 mm 0 mps 691 mmHg 14%
    01:00 +27°C° 0 mm 0 mps 691 mmHg 15%
    02:00 +27°C° 0 mm 0 mps 691 mmHg 15%
    03:00 +27°C° 0 mm 0 mps 691 mmHg 15%
    04:00 +27°C° 0 mm 0 mps 691 mmHg 15%
    05:00 +27°C° 0 mm 0 mps 691 mmHg 15%
    06:00 +31°C° 0 mm 1 mps 691 mmHg 13%
    07:00 +33°C° 0 mm 1 mps 692 mmHg 11%
    08:00 +35°C° 0 mm 1 mps 692 mmHg 10%
    09:00 +37°C° 0 mm 2 mps 692 mmHg 9%
    10:00 +38°C° 0 mm 3 mps 693 mmHg 9%
    11:00 +40°C° 0 mm 4 mps 693 mmHg 8%
    12:00 +41°C° 0 mm 5 mps 692 mmHg 8%
    13:00 +41°C° 0 mm 5 mps 692 mmHg 7%
    14:00 +42°C° 0 mm 6 mps 692 mmHg 7%
    15:00 +41°C° 0 mm 6 mps 692 mmHg 8%
    16:00 +41°C° 0 mm 5 mps 691 mmHg 8%
    17:00 +40°C° 0 mm 5 mps 691 mmHg 9%
    18:00 +38°C° 0 mm 4 mps 691 mmHg 10%
    19:00 +36°C° 0 mm 2 mps 691 mmHg 11%
    20:00 +34°C° 0 mm 1 mps 691 mmHg 12%
    21:00 +33°C° 0 mm 1 mps 691 mmHg 14%
    22:00 +32°C° 0 mm 1 mps 691 mmHg 16%
    23:00 +31°C° 0 mm 1 mps 691 mmHg 17%

    Day after tomorrow, 25 May, Saturday

    Time Temperature Precipitation Wind Pressure Humidity
    00:00 +30°C° 0 mm 1 mps 691 mmHg 19%
    01:00 +29°C° 0 mm 1 mps 691 mmHg 21%
    02:00 +29°C° 0 mm 1 mps 691 mmHg 23%
    03:00 +28°C° 0 mm 1 mps 691 mmHg 25%
    04:00 +28°C° 0 mm 2 mps 691 mmHg 27%
    05:00 +27°C° 0 mm 2 mps 691 mmHg 29%
    06:00 +29°C° 0 mm 2 mps 692 mmHg 26%
    07:00 +30°C° 0 mm 2 mps 692 mmHg 24%
    08:00 +32°C° 0 mm 2 mps 693 mmHg 22%
    09:00 +34°C° 0 mm 2 mps 693 mmHg 20%
    10:00 +35°C° 0 mm 2 mps 693 mmHg 18%
    11:00 +36°C° 0 mm 2 mps 693 mmHg 16%
    12:00 +37°C° 0 mm 2 mps 693 mmHg 15%
    13:00 +38°C° 0 mm 2 mps 693 mmHg 14%
    14:00 +38°C° 0 mm 3 mps 692 mmHg 13%
    15:00 +38°C° 0 mm 3 mps 692 mmHg 14%
    16:00 +37°C° 0 mm 3 mps 692 mmHg 15%
    17:00 +37°C° 0 mm 3 mps 692 mmHg 16%
    18:00 +35°C° 0 mm 3 mps 692 mmHg 19%
    19:00 +34°C° 0 mm 2 mps 692 mmHg 22%
    20:00 +31°C° 0 mm 2 mps 692 mmHg 25%
    21:00 +30°C° 0 mm 2 mps 692 mmHg 29%
    22:00 +29°C° 0 mm 2 mps 692 mmHg 32%
    23:00 +28°C° 0 mm 2 mps 692 mmHg 36%

    26 May, Sunday

    Time Temperature Precipitation Wind Pressure Humidity
    00:00 +28°C° 0 mm 2 mps 692 mmHg 37%
    01:00 +27°C° 0 mm 2 mps 691 mmHg 38%
    02:00 +26°C° 0 mm 2 mps 691 mmHg 40%
    03:00 +26°C° 0 mm 2 mps 691 mmHg 40%
    04:00 +25°C° 0 mm 2 mps 691 mmHg 41%
    05:00 +25°C° 0 mm 2 mps 691 mmHg 42%
    06:00 +26°C° 0 mm 2 mps 691 mmHg 38%
    07:00 +28°C° 0 mm 2 mps 692 mmHg 34%
    08:00 +29°C° 0 mm 2 mps 692 mmHg 30%
    09:00 +31°C° 0 mm 2 mps 692 mmHg 26%
    10:00 +34°C° 0 mm 2 mps 692 mmHg 22%
    11:00 +35°C° 0 mm 2 mps 692 mmHg 18%
    12:00 +36°C° 0 mm 2 mps 692 mmHg 16%
    13:00 +37°C° 0 mm 2 mps 692 mmHg 14%
    14:00 +38°C° 0 mm 2 mps 691 mmHg 12%
    15:00 +38°C° 0 mm 3 mps 691 mmHg 13%
    16:00 +37°C° 0 mm 4 mps 691 mmHg 14%
    17:00 +37°C° 0 mm 5 mps 691 mmHg 15%
    18:00 +35°C° 0 mm 4 mps 691 mmHg 17%
    19:00 +34°C° 0 mm 3 mps 691 mmHg 18%
    20:00 +31°C° 0 mm 3 mps 691 mmHg 20%
    21:00 +31°C° 0 mm 2 mps 691 mmHg 22%
    22:00 +30°C° 0 mm 2 mps 691 mmHg 24%
    23:00 +29°C° 0 mm 1 mps 691 mmHg 25%

    27 May, Monday

    Time Temperature Precipitation Wind Pressure Humidity
    00:00 +28°C° 0 mm 1 mps 691 mmHg 26%
    01:00 +28°C° 0 mm 1 mps 690 mmHg 27%
    02:00 +27°C° 0 mm 2 mps 690 mmHg 28%
    03:00 +27°C° 0 mm 2 mps 690 mmHg 28%
    04:00 +26°C° 0 mm 2 mps 690 mmHg 29%
    05:00 +26°C° 0 mm 2 mps 690 mmHg 30%
    06:00 +28°C° 0 mm 2 mps 691 mmHg 26%
    07:00 +30°C° 0 mm 2 mps 691 mmHg 22%
    08:00 +32°C° 0 mm 2 mps 692 mmHg 18%
    09:00 +34°C° 0 mm 2 mps 692 mmHg 16%
    10:00 +36°C° 0 mm 2 mps 691 mmHg 14%
    11:00 +37°C° 0 mm 2 mps 691 mmHg 12%
    12:00 +38°C° 0 mm 3 mps 691 mmHg 11%
    13:00 +39°C° 0 mm 3 mps 691 mmHg 10%
    14:00 +41°C° 0 mm 4 mps 690 mmHg 9%
    15:00 +40°C° 0 mm 3 mps 690 mmHg 10%
    16:00 +39°C° 0 mm 3 mps 690 mmHg 10%
    17:00 +39°C° 0 mm 3 mps 690 mmHg 10%
    18:00 +37°C° 0 mm 2 mps 690 mmHg 13%
    19:00 +36°C° 0 mm 2 mps 691 mmHg 16%
    20:00 +34°C° 0 mm 2 mps 691 mmHg 19%
    21:00 +32°C° 0 mm 2 mps 691 mmHg 21%
    22:00 +31°C° 0 mm 2 mps 691 mmHg 24%
    23:00 +30°C° 0 mm 2 mps 691 mmHg 26%

    28 May, Tuesday

    Time Temperature Precipitation Wind Pressure Humidity
    00:00 +30°C° 0 mm 2 mps 691 mmHg 28%
    01:00 +29°C° 0 mm 2 mps 690 mmHg 29%
    02:00 +28°C° 0 mm 1 mps 690 mmHg 31%
    03:00 +28°C° 0 mm 1 mps 690 mmHg 31%
    04:00 +27°C° 0 mm 1 mps 690 mmHg 32%
    05:00 +27°C° 0 mm 1 mps 690 mmHg 32%
    06:00 +29°C° 0 mm 1 mps 690 mmHg 28%
    07:00 +30°C° 0 mm 2 mps 691 mmHg 23%
    08:00 +32°C° 0 mm 2 mps 691 mmHg 19%
    09:00 +35°C° 0 mm 2 mps 691 mmHg 17%
    10:00 +36°C° 0 mm 2 mps 691 mmHg 15%
    11:00 +37°C° 0 mm 2 mps 691 mmHg 13%
    12:00 +38°C° 0 mm 2 mps 691 mmHg 12%
    13:00 +39°C° 0 mm 2 mps 691 mmHg 11%
    14:00 +40°C° 0 mm 2 mps 691 mmHg 10%
    15:00 +40°C° 0 mm 2 mps 691 mmHg 10%
    16:00 +39°C° 0 mm 3 mps 691 mmHg 11%
    17:00 +39°C° 0 mm 3 mps 691 mmHg 11%
    18:00 +37°C° 0 mm 3 mps 691 mmHg 14%
    19:00 +36°C° 0 mm 3 mps 691 mmHg 17%
    20:00 +34°C° 0 mm 3 mps 691 mmHg 20%
    21:00 +32°C° 0 mm 2 mps 691 mmHg 23%
    22:00 +31°C° 0 mm 2 mps 691 mmHg 25%
    23:00 +30°C° 0 mm 2 mps 691 mmHg 28%
    Show more